Total_Precipitation_Accumulation
0.05 0.05 0.06 0.06 0.06 0.07 0.16 0.16 0.13 0.02 0.04 0.07 0.11 0.04 0.00 0.00 0.00 0.00 0.00 0.00 0.00 0.00 0.00 0.00 0.00 0.00 0.00 0.00 0.00 0.00 0.00 0.00 0.00 0.00 0.00 0.00 0.00 0.00 0.00 0.00 0.00 0.00 0.00 0.00
0.05 0.05 0.06 0.07 0.08 0.11 0.22 0.23 0.09 0.12 0.08 0.04 0.03 0.00 0.00 0.00 0.00 0.00 0.00 0.00 0.00 0.00 0.00 0.00 0.00 0.00 0.00 0.00 0.00 0.00 0.00 0.00 0.00 0.00 0.00 0.00 0.00 0.00 0.00 0.00 0.00 0.00 0.01 0.00
0.06 0.06 0.07 0.10 0.14 0.15 0.19 0.20 0.16 0.18 0.14 0.01 0.00 0.00 0.01 0.00 0.00 0.00 0.00 0.00 0.00 0.00 0.00 0.00 0.00 0.00 0.00 0.00 0.00 0.00 0.00 0.00 0.00 0.00 0.00 0.00 0.00 0.00 0.00 0.00 0.00 0.00 0.00 0.00
0.14 0.12 0.14 0.22 0.25 0.25 0.28 0.22 0.08 0.06 0.07 0.03 0.00 0.00 0.00 0.00 0.00 0.00 0.00 0.00 0.00 0.00 0.00 0.00 0.00 0.00 0.00 0.00 0.00 0.00 0.00 0.00 0.00 0.00 0.00 0.00 0.00 0.00 0.00 0.00 0.00 0.00 0.00 0.00
0.20 0.23 0.26 0.33 0.38 0.41 0.37 0.15 0.02 0.00 0.00 0.00 0.01 0.01 0.01 0.00 0.00 0.00 0.00 0.00 0.00 0.00 0.00 0.00 0.00 0.00 0.00 0.00 0.00 0.00 0.00 0.00 0.00 0.00 0.00 0.00 0.00 0.00 0.00 0.00 0.00 0.00 0.00 0.00
0.21 0.27 0.36 0.44 0.52 0.62 0.63 0.11 0.00 0.01 0.01 0.02 0.02 0.01 0.00 0.00 0.00 0.00 0.00 0.00 0.00 0.00 0.00 0.00 0.00 0.00 0.00 0.00 0.00 0.00 0.00 0.00 0.00 0.00 0.00 0.00 0.00 0.00 0.00 0.00 0.00 0.00 0.00 0.00
0.16 0.31 0.41 0.48 0.55 0.61 0.31 0.04 0.00 0.02 0.02 0.03 0.01 0.00 0.00 0.00 0.00 0.00 0.00 0.00 0.00 0.00 0.00 0.01 0.00 0.01 0.00 0.00 0.00 0.00 0.00 0.00 0.00 0.00 0.00 0.00 0.00 0.00 0.00 0.00 0.00 0.00 0.00 0.00
0.07 0.28 0.45 0.51 0.52 0.41 0.10 0.00 0.01 0.02 0.02 0.00 0.00 0.00 0.00 0.01 0.01 0.00 0.00 0.00 0.00 0.00 0.00 0.00 0.00 0.03 0.02 0.00 0.00 0.00 0.00 0.00 0.01 0.00 0.00 0.00 0.00 0.00 0.00 0.00 0.00 0.00 0.00 0.00
0.06 0.18 0.42 0.46 0.46 0.32 0.10 0.01 0.00 0.01 0.02 0.00 0.00 0.03 0.02 0.01 0.02 0.03 0.01 0.00 0.00 0.00 0.00 0.00 0.00 0.01 0.02 0.00 0.02 0.00 0.00 0.00 0.02 0.01 0.00 0.00 0.00 0.00 0.00 0.00 0.00 0.00 0.00 0.00
0.07 0.14 0.26 0.43 0.37 0.26 0.14 0.04 0.01 0.01 0.01 0.01 0.04 0.06 0.07 0.02 0.02 0.03 0.03 0.02 0.03 0.02 0.01 0.01 0.00 0.00 0.00 0.00 0.02 0.02 0.00 0.00 0.01 0.02 0.01 0.00 0.00 0.00 0.00 0.00 0.00 0.00 0.00 0.00
0.11 0.12 0.16 0.30 0.31 0.21 0.16 0.06 0.01 0.01 0.03 0.04 0.07 0.06 0.11 0.06 0.04 0.04 0.02 0.07 0.03 0.04 0.02 0.01 0.00 0.00 0.00 0.00 0.00 0.01 0.02 0.02 0.02 0.03 0.02 0.00 0.00 0.00 0.00 0.00 0.00 0.00 0.00 0.00
0.11 0.12 0.11 0.20 0.23 0.21 0.13 0.04 0.01 0.01 0.05 0.07 0.07 0.07 0.07 0.12 0.02 0.03 0.04 0.01 0.00 0.00 0.01 0.01 0.00 0.00 0.00 0.00 0.00 0.00 0.00 0.01 0.04 0.01 0.00 0.00 0.00 0.00 0.00 0.00 0.00 0.00 0.00 0.00
0.09 0.10 0.11 0.16 0.21 0.25 0.12 0.03 0.01 0.02 0.04 0.03 0.01 0.05 0.02 0.07 0.07 0.02 0.09 0.03 0.00 0.00 0.00 0.00 0.00 0.00 0.00 0.00 0.00 0.00 0.00 0.00 0.00 0.00 0.00 0.00 0.00 0.00 0.00 0.00 0.00 0.00 0.00 0.00
0.09 0.11 0.15 0.17 0.27 0.27 0.09 0.01 0.01 0.01 0.02 0.02 0.01 0.06 0.07 0.01 0.04 0.01 0.01 0.03 0.00 0.00 0.00 0.04 0.02 0.00 0.00 0.00 0.00 0.00 0.00 0.00 0.00 0.00 0.00 0.00 0.00 0.00 0.00 0.00 0.00 0.00 0.00 0.00
0.11 0.16 0.20 0.27 0.36 0.29 0.07 0.01 0.00 0.00 0.02 0.07 0.01 0.04 0.10 0.06 0.04 0.02 0.01 0.02 0.06 0.04 0.04 0.02 0.01 0.00 0.00 0.00 0.00 0.00 0.00 0.00 0.00 0.00 0.00 0.00 0.00 0.00 0.00 0.00 0.00 0.00 0.00 0.00
0.18 0.22 0.30 0.43 0.43 0.17 0.02 0.09 0.05 0.00 0.03 0.15 0.10 0.05 0.09 0.13 0.07 0.04 0.01 0.01 0.07 0.06 0.02 0.02 0.00 0.00 0.00 0.00 0.00 0.00 0.00 0.00 0.00 0.00 0.00 0.00 0.00 0.00 0.00 0.00 0.00 0.00 0.00 0.00
0.20 0.27 0.36 0.33 0.12 0.01 0.02 0.06 0.02 0.00 0.07 0.14 0.17 0.11 0.09 0.24 0.13 0.11 0.08 0.04 0.05 0.09 0.10 0.04 0.03 0.01 0.00 0.00 0.00 0.00 0.00 0.00 0.00 0.00 0.00 0.00 0.00 0.00 0.00 0.00 0.00 0.00 0.00 0.00
0.21 0.24 0.14 0.03 0.02 0.05 0.03 0.05 0.00 0.00 0.04 0.08 0.15 0.30 0.38 0.53 0.27 0.15 0.12 0.10 0.09 0.05 0.08 0.04 0.04 0.03 0.02 0.01 0.00 0.00 0.00 0.00 0.00 0.00 0.00 0.00 0.00 0.00 0.00 0.00 0.00 0.00 0.00 0.00
0.12 0.10 0.11 0.14 0.12 0.08 0.05 0.03 0.01 0.02 0.04 0.09 0.10 0.35 0.67 0.82 0.50 0.16 0.12 0.17 0.11 0.05 0.03 0.03 0.06 0.02 0.01 0.00 0.00 0.00 0.00 0.00 0.00 0.00 0.00 0.00 0.00 0.00 0.00 0.00 0.00 0.00 0.00 0.00
0.07 0.07 0.11 0.13 0.08 0.07 0.14 0.13 0.12 0.07 0.04 0.07 0.10 0.29 0.59 0.83 0.97 0.34 0.13 0.13 0.08 0.02 0.01 0.02 0.03 0.01 0.00 0.00 0.00 0.00 0.00 0.00 0.00 0.00 0.00 0.00 0.00 0.00 0.00 0.00 0.00 0.00 0.00 0.01
0.04 0.05 0.05 0.05 0.17 0.20 0.15 0.10 0.12 0.07 0.03 0.02 0.02 0.10 0.39 0.68 0.95 0.39 0.25 0.17 0.15 0.06 0.02 0.04 0.01 0.00 0.01 0.00 0.00 0.00 0.00 0.00 0.00 0.00 0.00 0.00 0.00 0.00 0.00 0.00 0.00 0.01 0.03 0.04
0.08 0.08 0.10 0.28 0.20 0.10 0.04 0.10 0.03 0.03 0.02 0.02 0.01 0.07 0.21 0.44 0.78 0.46 0.25 0.20 0.27 0.18 0.03 0.03 0.01 0.00 0.00 0.00 0.00 0.00 0.00 0.00 0.00 0.00 0.00 0.00 0.00 0.00 0.00 0.00 0.00 0.01 0.03 0.08
0.08 0.07 0.10 0.08 0.02 0.01 0.06 0.09 0.01 0.01 0.01 0.01 0.06 0.14 0.11 0.20 0.50 0.39 0.13 0.12 0.15 0.17 0.12 0.04 0.01 0.00 0.01 0.00 0.00 0.00 0.00 0.00 0.00 0.00 0.00 0.00 0.00 0.00 0.00 0.01 0.03 0.07 0.13 0.18
0.04 0.03 0.01 0.01 0.00 0.03 0.03 0.02 0.00 0.00 0.01 0.01 0.06 0.13 0.13 0.14 0.19 0.14 0.16 0.25 0.28 0.24 0.16 0.10 0.07 0.04 0.03 0.02 0.00 0.00 0.00 0.00 0.00 0.00 0.00 0.00 0.00 0.00 0.03 0.06 0.09 0.08 0.11 0.16
0.08 0.01 0.00 0.01 0.01 0.05 0.06 0.00 0.00 0.01 0.01 0.01 0.01 0.03 0.07 0.07 0.09 0.11 0.19 0.28 0.26 0.16 0.09 0.08 0.07 0.06 0.07 0.07 0.08 0.07 0.05 0.03 0.02 0.03 0.03 0.04 0.04 0.03 0.08 0.11 0.11 0.06 0.05 0.05
0.06 0.05 0.06 0.03 0.05 0.10 0.07 0.02 0.01 0.01 0.01 0.01 0.03 0.04 0.10 0.10 0.09 0.12 0.10 0.05 0.06 0.08 0.09 0.09 0.06 0.06 0.07 0.08 0.08 0.09 0.09 0.09 0.08 0.09 0.07 0.07 0.06 0.05 0.06 0.06 0.04 0.05 0.05 0.05
0.09 0.12 0.08 0.05 0.09 0.10 0.10 0.06 0.06 0.08 0.08 0.06 0.05 0.07 0.08 0.09 0.07 0.09 0.04 0.05 0.07 0.07 0.08 0.08 0.08 0.09 0.10 0.11 0.10 0.11 0.09 0.09 0.07 0.05 0.03 0.03 0.02 0.01 0.01 0.01 0.02 0.01 0.01 0.00